Lapse_Rate
4.9 5.9 6.0 6.3 6.3 6.8 7.0 6.9 7.1 7.1 7.7 7.6 7.8 7.6 7.7 7.3 7.0 7.0 6.9 6.3 5.9 5.5 5.0 5.0 5.4 5.7 5.8 5.7 5.5 5.4 5.7 5.8 5.8 5.9 6.0 6.0 6.1 6.2 6.2 6.4 6.3 6.2 6.3 6.1 6.0 5.8 5.7
5.4 6.4 5.9 6.7 6.8 6.8 6.6 6.9 7.0 7.4 8.0 7.8 7.8 7.6 7.9 7.4 7.1 7.0 6.9 6.6 6.4 5.7 5.7 5.1 5.6 6.1 5.9 5.8 6.0 5.4 5.6 5.8 5.9 5.9 6.0 6.0 6.1 6.2 6.3 6.4 6.3 6.3 6.2 6.0 6.0 5.8 5.8
6.0 5.8 6.7 7.1 7.1 7.0 7.0 6.7 7.1 7.6 8.2 7.9 7.7 7.6 7.5 7.2 7.1 7.0 6.8 6.7 6.1 5.6 5.5 5.6 5.7 5.7 6.0 5.5 5.7 5.8 5.7 5.7 5.9 6.0 6.1 6.2 6.3 6.2 6.3 6.1 6.1 6.2 6.1 6.1 6.2 6.1 5.8
6.1 6.9 7.2 7.3 7.2 7.8 7.3 7.1 7.2 7.5 7.8 7.8 7.7 7.7 7.6 7.3 6.9 7.0 6.7 6.6 6.3 5.7 5.3 5.7 6.1 6.0 5.9 5.8 5.8 6.1 5.9 5.8 6.0 6.1 6.3 6.3 6.2 6.2 6.1 6.0 6.0 6.0 6.2 6.1 6.0 6.0 6.0
6.2 7.1 7.5 7.1 6.9 7.0 6.8 7.1 7.4 7.7 7.9 7.7 7.9 7.8 7.5 7.0 6.9 7.0 6.8 6.5 5.9 5.6 5.5 6.2 6.2 5.8 5.6 5.6 5.7 5.9 6.1 6.1 6.0 6.2 6.3 6.2 6.1 6.1 6.0 5.9 5.9 5.9 5.8 6.0 6.3 6.0 5.9
6.3 7.2 7.4 7.1 6.8 6.7 6.9 7.3 7.8 7.8 7.8 7.9 8.0 7.6 7.1 6.8 6.6 6.8 6.8 6.5 5.8 5.4 5.8 5.9 6.0 6.0 5.9 5.9 5.6 5.6 6.0 6.0 5.9 6.0 6.1 6.0 6.1 6.1 6.0 5.9 5.8 5.7 5.9 6.2 6.4 6.0 6.1
6.1 7.2 7.3 6.9 6.9 6.9 7.0 7.2 7.7 7.9 7.8 7.6 7.5 7.1 6.8 6.7 6.7 6.5 6.4 6.5 5.7 5.5 5.7 6.1 5.9 6.2 6.0 5.8 5.6 5.4 5.8 5.9 6.0 6.0 6.2 6.2 6.2 6.0 5.8 5.9 6.0 6.1 6.0 6.1 6.3 5.5 5.4
6.1 7.2 7.2 6.8 6.5 6.5 6.9 7.1 7.0 7.1 7.4 7.2 7.2 7.1 7.2 7.1 6.7 6.3 6.2 6.0 5.9 5.9 6.1 6.0 6.1 5.8 5.7 5.6 5.7 5.5 5.7 6.0 6.1 6.1 6.2 6.2 6.0 5.9 6.0 6.1 6.2 6.0 6.0 5.9 5.9 5.3 4.8
5.8 7.1 7.0 7.0 6.3 6.2 6.6 6.6 6.6 6.7 6.5 6.6 6.6 7.2 7.2 6.9 6.5 6.0 6.0 6.0 6.0 6.3 6.2 6.1 6.0 5.7 5.5 5.5 5.7 5.8 5.9 6.1 6.2 6.2 6.0 6.1 6.0 6.2 6.3 6.2 6.2 5.9 5.8 5.3 4.9 4.8 5.1
5.3 6.5 7.0 7.1 6.7 6.6 6.4 6.7 6.6 6.7 6.7 6.9 7.0 7.3 7.5 7.1 6.3 6.2 6.2 6.4 6.4 6.2 5.9 5.6 5.5 5.2 5.4 5.3 5.5 5.6 5.8 6.1 6.2 6.0 6.1 6.2 6.3 6.3 6.3 6.1 5.9 5.7 5.4 5.1 4.7 4.6 4.4
4.8 5.7 6.5 6.9 7.1 6.6 6.6 6.5 6.6 6.7 6.8 6.5 6.9 6.8 6.9 6.7 6.2 6.3 6.5 6.3 6.3 6.4 4.9 5.3 5.0 5.0 5.2 5.4 5.5 5.7 6.0 6.2 6.2 6.3 6.2 6.2 6.1 6.2 5.9 5.7 5.6 5.3 5.4 5.0 4.7 4.4 4.2
4.8 5.0 5.7 6.3 6.6 6.9 6.5 6.5 6.3 6.3 6.2 6.3 6.4 6.3 6.5 6.3 6.1 6.3 6.3 6.2 6.3 6.2 4.5 5.2 5.1 5.2 5.6 5.6 5.7 5.8 6.0 6.2 6.2 6.2 6.2 5.9 5.9 5.9 5.8 5.8 5.8 5.6 5.1 4.7 4.3 4.0 3.7
5.2 4.8 5.1 5.7 6.0 6.4 6.7 6.5 6.6 6.3 6.3 6.1 5.8 5.6 5.7 6.0 6.1 6.0 6.0 6.0 6.0 4.7 4.8 5.1 5.3 5.3 5.6 5.7 6.0 6.0 6.2 6.3 6.2 6.1 6.0 5.9 5.9 5.9 6.1 6.0 5.9 5.0 4.9 4.6 4.1 3.6 4.6
5.5 5.3 4.9 5.2 5.6 5.9 6.4 6.7 6.5 6.5 6.3 6.1 6.1 6.0 5.9 5.6 5.9 5.8 5.9 5.9 5.1 4.4 4.5 5.2 5.3 5.3 5.5 5.8 5.8 5.7 5.7 5.6 5.7 5.9 6.0 6.1 5.8 6.2 6.2 5.9 5.5 4.9 4.8 4.7 4.7 4.0 4.5
5.4 5.6 5.4 5.1 5.3 5.5 6.0 6.4 6.9 6.8 6.5 6.1 5.8 5.6 5.9 6.3 6.1 6.5 6.3 6.7 4.8 5.2 5.7 5.5 5.5 5.6 5.6 5.8 5.7 5.5 5.4 5.5 5.5 5.5 5.9 6.2 6.2 6.2 6.1 5.9 5.5 5.3 4.7 4.6 4.8 4.9 4.6
5.5 5.4 5.7 5.6 5.5 5.6 5.7 6.2 6.7 7.0 6.9 6.7 6.6 6.4 6.0 6.0 6.8 6.9 7.4 5.7 5.3 5.5 5.5 5.6 5.6 5.7 5.7 5.6 5.5 5.6 5.6 5.6 5.5 5.7 5.6 5.7 6.1 6.2 5.9 5.7 5.5 5.2 4.9 4.8 5.0 4.7 4.4
6.1 5.8 5.6 5.9 5.7 5.8 5.9 5.8 6.2 6.5 6.5 6.7 7.0 6.6 6.2 6.2 6.7 7.3 7.0 5.7 5.7 5.9 5.9 5.9 6.0 5.9 5.7 5.6 5.6 5.7 5.9 5.9 5.9 5.7 5.4 4.9 5.0 5.9 5.7 5.8 5.6 5.4 5.3 5.1 4.6 4.5 4.6
6.2 6.2 5.8 5.8 6.0 5.7 5.8 6.0 6.0 6.2 6.5 6.6 6.7 6.6 6.2 6.6 7.1 6.8 5.9 5.5 5.6 5.6 5.7 5.6 5.6 5.5 5.5 5.6 5.7 5.8 5.8 5.6 5.6 5.4 4.9 4.7 4.6 4.8 5.9 5.6 5.5 5.4 5.3 5.1 4.8 4.9 4.6
6.3 6.1 6.4 6.0 5.9 6.1 6.0 6.0 6.0 6.1 6.2 6.6 7.0 6.6 6.5 6.6 6.9 6.5 5.9 5.7 5.5 5.5 5.5 5.4 5.3 5.4 5.5 5.6 5.8 5.8 5.7 5.4 5.3 5.2 5.1 4.9 4.9 4.8 5.8 5.8 5.7 5.4 5.3 5.2 4.8 4.5 4.6
6.5 6.1 5.9 6.4 6.2 6.0 6.2 6.2 6.0 5.9 6.0 6.3 6.4 6.1 6.3 6.6 6.5 6.4 6.1 5.8 5.8 5.7 5.7 5.7 5.6 5.6 5.5 5.5 5.5 5.4 5.4 5.3 5.3 5.2 5.1 5.0 5.2 5.3 5.4 5.9 5.6 5.4 5.0 4.9 4.7 4.4 4.8
6.1 6.2 5.8 5.8 6.3 6.5 6.1 6.1 6.2 6.0 5.9 5.9 6.2 5.9 6.0 6.0 6.3 6.3 6.4 6.3 6.1 6.1 6.0 5.9 5.8 5.6 5.5 5.4 5.4 5.4 5.4 5.4 5.5 5.4 5.3 5.0 5.2 5.5 5.4 5.6 5.3 5.3 5.3 4.7 4.6 4.8 4.5
6.0 6.1 5.9 5.7 5.8 6.0 6.4 6.2 6.2 6.0 5.9 5.9 5.9 5.8 5.6 5.7 5.9 5.9 6.0 6.0 6.1 6.2 6.2 6.2 6.2 6.0 5.9 5.8 5.7 5.5 5.5 5.3 5.3 5.2 4.9 4.6 4.6 4.7 5.4 5.5 5.5 5.4 5.2 5.0 5.0 4.8 4.8
6.2 6.1 6.0 5.8 5.5 5.6 6.0 6.3 6.2 6.0 5.8 5.7 5.7 5.8 5.6 5.6 5.4 5.4 5.4 5.6 5.7 5.8 5.9 5.9 5.8 5.8 5.9 5.8 5.7 5.7 5.8 5.9 5.8 5.6 5.2 4.5 4.2 4.0 4.4 4.8 4.9 5.4 5.7 5.8 5.6 5.0 5.1
6.4 6.3 6.1 5.9 5.5 5.3 5.5 5.9 6.1 6.1 5.9 5.5 5.5 5.4 5.5 5.5 5.4 5.4 5.3 5.3 5.3 5.2 5.3 5.2 5.3 5.3 5.4 5.4 5.6 5.7 5.8 5.8 5.8 5.5 5.1 4.7 4.2 3.7 3.9 4.7 3.5 5.6 5.2 5.1 5.2 5.3 5.0
6.1 6.0 6.0 5.9 5.4 5.2 5.0 5.4 5.5 5.7 5.7 5.4 5.1 5.2 5.2 5.3 5.3 5.2 5.2 5.2 5.0 5.0 4.9 4.9 4.9 5.0 4.9 4.9 5.0 5.3 5.6 5.5 5.7 5.4 5.1 4.4 3.8 3.6 3.7 3.5 5.0 5.5 5.3 5.2 5.0 5.3 5.0
6.0 5.8 5.8 5.8 5.6 4.9 4.8 4.8 5.1 5.2 5.3 5.3 5.0 4.9 4.7 4.7 5.1 5.1 5.0 4.9 5.0 5.0 4.8 4.7 4.6 4.6 4.5 4.4 4.4 4.5 5.0 5.3 4.9 4.7 4.8 4.3 3.7 3.2 3.1 3.4 3.5 5.2 5.1 5.1 4.8 4.9 5.1
5.5 5.3 5.5 5.6 5.6 5.1 4.5 4.4 4.6 4.8 4.7 4.9 4.9 4.7 4.5 4.5 4.5 4.7 4.7 4.8 4.8 4.7 4.7 4.6 4.5 4.5 4.3 4.2 4.0 4.1 4.4 4.7 4.7 4.7 4.7 4.4 3.8 3.6 3.4 3.0 4.3 5.0 4.5 4.5 4.9 5.2 4.9
5.0 5.1 4.9 5.2 5.2 5.0 4.4 4.2 4.0 4.3 4.6 4.6 4.6 4.6 4.6 4.5 4.1 4.2 4.3 4.4 4.5 4.5 4.6 4.3 4.2 4.4 4.1 3.9 3.7 3.8 3.8 3.9 3.9 4.4 4.4 4.2 4.1 4.0 3.5 3.3 3.6 5.0 4.6 4.2 4.3 4.2 4.2
4.5 4.5 4.5 4.7 4.8 4.6 4.2 3.8 3.8 3.8 4.2 4.4 4.4 4.5 4.5 4.5 4.4 4.1 4.0 3.9 4.1 4.2 4.2 4.4 4.2 3.7 3.4 3.5 3.3 3.1 3.0 3.1 3.4 3.0 3.5 3.4 4.0 4.2 4.2 5.1 5.3 5.2 5.2 5.0 4.6 4.5 4.7
Wind_Speed
25 23 23 21 17 11 8 9 9 9 9 9 10 8 3 4 5 13 3 4 6 3 4 5 19 27 5 6 4 6 11 6 9 6 5 3 4 4 5 4 3 3 1 4 4 7 7
27 27 28 25 22 19 4 12 8 7 7 8 9 8 3 5 5 12 2 4 3 3 3 5 24 10 6 11 7 3 10 7 5 6 5 5 3 3 6 3 3 0 3 5 4 5 4
32 32 32 30 26 24 13 11 7 7 8 8 8 9 5 5 2 8 2 2 3 4 7 10 7 4 14 8 3 12 10 4 3 3 6 3 4 5 3 3 2 1 5 5 3 4 4
34 35 34 31 24 29 13 10 9 9 11 10 7 7 5 4 4 3 4 3 2 2 4 6 2 5 6 4 7 11 6 7 8 6 7 4 7 7 4 3 5 4 4 5 1 5 1
33 34 31 26 22 18 14 14 13 14 12 12 10 6 5 5 4 6 9 9 8 3 8 15 1 4 8 11 5 3 4 6 5 5 7 6 5 4 4 4 3 6 1 2 7 1 2
32 32 28 24 22 18 18 18 17 16 15 14 13 11 9 10 10 10 5 18 15 13 11 5 2 9 4 3 3 3 3 5 5 3 4 7 5 3 3 4 2 1 1 3 5 3 3
31 30 25 25 20 19 19 19 18 17 17 17 15 13 12 10 6 9 10 12 5 6 7 5 8 12 7 4 4 5 3 4 3 6 4 4 6 3 2 3 4 4 1 3 5 6 4
30 26 25 24 21 19 19 19 20 19 17 15 15 10 9 13 13 11 5 5 4 3 18 16 21 15 6 2 5 5 3 3 5 4 1 5 3 2 5 4 3 2 2 5 9 7 5
31 28 25 22 22 19 19 18 17 17 15 13 15 8 5 12 4 14 15 6 4 3 7 8 7 7 2 5 4 3 3 1 3 4 4 3 3 5 2 1 1 2 3 3 6 7 9
31 31 28 25 22 20 18 17 17 18 19 16 15 10 3 7 7 1 5 5 8 2 5 7 6 5 4 3 5 2 3 2 4 3 2 2 1 2 2 3 5 3 8 7 6 6 4
28 29 27 25 22 19 17 16 18 18 18 17 12 15 21 11 4 2 2 7 8 2 6 6 4 2 2 5 5 4 3 4 3 2 5 2 2 2 3 5 6 3 4 6 8 6 4
24 24 24 24 22 19 17 16 17 19 19 18 18 15 10 6 4 2 6 11 2 6 6 3 3 2 4 5 2 1 3 4 2 3 3 4 1 3 4 2 5 4 3 2 2 2 2
23 23 23 20 19 18 17 16 16 17 18 15 12 13 8 3 0 11 5 2 5 6 1 2 2 1 3 3 4 2 3 4 3 4 5 4 2 2 2 2 2 2 3 3 4 2 4
21 22 22 22 20 19 18 18 17 18 16 13 10 12 7 3 1 3 2 5 11 2 4 1 2 4 4 0 3 2 2 2 3 2 2 2 3 5 5 4 2 1 0 2 4 3 5
20 21 22 23 24 22 20 19 16 15 16 11 6 3 3 4 4 2 5 7 2 2 3 4 2 3 4 2 3 1 4 3 4 6 4 3 4 2 4 3 2 1 1 0 3 1 3
19 19 21 22 24 25 24 22 21 15 11 4 2 2 3 7 4 4 5 7 3 1 4 2 2 1 3 2 1 2 1 3 2 3 1 0 4 2 1 2 2 4 2 2 0 3 4
18 19 20 22 24 25 27 26 25 20 13 4 3 3 1 3 2 6 4 3 3 3 1 2 3 2 1 2 3 1 2 2 1 2 1 1 2 5 2 4 5 1 2 1 1 2 2
17 19 21 21 22 25 26 27 27 23 9 6 2 4 1 4 5 2 3 2 1 1 1 1 2 2 4 3 1 0 1 3 4 4 1 1 2 5 7 1 2 0 3 4 2 3 3
18 17 20 22 23 22 25 25 26 23 13 2 3 0 2 3 4 2 1 2 1 3 3 3 3 3 2 2 3 1 1 2 6 5 3 2 1 5 7 4 1 3 3 3 3 2 5
18 19 18 21 23 25 24 25 25 23 10 3 3 3 4 4 1 5 3 2 2 2 2 1 1 3 3 3 1 3 2 1 6 5 5 5 3 6 5 6 2 5 5 4 4 2 2
15 18 19 19 21 25 26 26 27 26 10 3 4 1 0 1 3 4 2 2 1 2 1 3 3 4 1 1 2 2 1 3 2 3 2 4 4 5 7 14 8 14 15 8 8 7 5
13 15 17 18 19 22 25 26 27 29 9 4 3 3 3 2 4 2 2 3 4 3 4 1 4 2 4 4 5 4 3 4 4 1 4 1 4 2 6 6 5 7 11 12 14 8 9
10 12 15 17 17 18 21 24 26 29 10 3 0 1 2 1 2 2 2 2 4 1 3 2 4 2 3 7 8 8 7 4 5 6 5 5 2 2 5 4 9 6 5 7 5 5 6
8 9 12 14 16 17 17 20 22 22 12 2 2 2 3 2 1 3 1 1 2 3 4 3 1 1 3 4 4 2 2 6 5 6 5 5 3 1 4 6 4 5 3 5 7 6 8
11 7 9 11 13 15 15 16 18 19 15 3 1 3 3 0 2 3 3 3 2 2 2 3 3 3 3 5 3 5 3 2 2 5 7 6 3 3 2 2 7 2 2 3 2 6 4
12 9 8 9 9 12 13 13 14 15 14 3 1 1 3 4 4 2 2 1 3 2 4 4 1 0 4 3 2 3 3 2 2 0 6 5 2 2 1 2 5 4 2 4 4 4 3
12 12 9 8 8 8 11 12 12 13 11 4 1 1 2 2 3 5 4 4 4 2 2 3 3 1 2 2 1 3 4 2 3 3 4 2 2 6 4 3 8 6 2 2 2 5 3
12 13 11 9 8 6 8 10 10 10 10 3 1 1 2 2 4 6 5 5 2 2 4 3 2 1 2 1 2 2 2 3 2 4 5 7 5 4 2 3 7 5 4 5 5 2 3
12 13 12 11 10 7 6 8 8 8 9 4 1 1 1 2 4 3 5 3 5 6 5 2 3 3 4 3 2 1 3 1 3 4 1 4 6 3 8 6 4 6 6 4 4 5 5
Wind_Direction
344 341 334 333 330 316 322 337 345 346 348 345 350 10 71 88 83 303 288 355 30 41 16 10 120 117 128 56 64 325 81 80 60 71 62 89 65 116 112 111 103 81 339 284 272 278 254
346 336 330 324 313 293 30 336 357 350 352 357 3 11 78 110 80 270 314 353 28 79 56 12 133 134 115 81 323 53 78 60 65 74 60 54 108 101 96 76 70 287 268 278 287 304 270
345 345 346 346 336 330 60 336 7 4 10 10 6 15 44 130 71 266 333 329 8 65 114 134 118 147 74 106 344 76 75 23 41 82 84 33 105 76 129 91 17 77 348 335 16 356 312
9 8 7 16 40 91 91 14 10 24 19 26 360 23 19 126 186 273 260 234 182 105 113 103 97 90 76 299 321 68 72 47 46 59 91 63 74 89 59 124 33 46 48 359 66 323 349
18 17 19 50 60 73 45 18 38 36 42 32 38 45 47 45 348 292 249 226 176 105 94 132 88 89 93 311 60 32 57 91 63 43 46 62 62 76 40 72 36 16 45 328 313 337 307
22 21 40 56 59 58 47 52 49 49 40 47 45 39 44 39 22 344 170 148 147 91 89 52 52 71 348 63 55 49 31 70 76 29 31 39 50 74 43 55 211 331 10 286 265 308 11
26 30 59 46 55 53 54 60 56 53 52 43 27 26 52 45 13 56 58 107 71 53 22 72 97 80 124 126 44 25 4 61 45 42 59 18 66 71 110 109 128 125 122 271 255 275 288
31 37 44 45 49 49 61 57 55 52 47 35 18 28 56 32 32 64 58 63 56 150 72 66 73 85 90 115 81 4 20 76 49 71 52 35 91 158 117 128 105 98 354 281 293 259 251
35 35 36 45 49 54 59 55 54 48 40 33 37 34 36 35 57 56 70 59 62 279 84 40 52 83 339 70 81 357 27 71 93 59 51 102 142 138 152 164 91 236 188 230 243 303 266
38 39 39 42 50 53 53 46 40 43 36 38 50 50 50 353 48 4 78 320 338 6 90 18 25 25 6 93 53 344 351 112 47 82 84 103 119 160 206 273 141 264 205 236 275 331 316
36 40 38 39 44 45 45 44 44 35 30 33 63 66 64 66 116 54 102 301 288 205 74 5 1 256 60 85 155 350 346 4 77 92 71 266 172 174 242 218 180 231 180 240 276 264 313
30 33 38 35 33 35 35 33 30 27 23 30 42 59 64 35 52 12 325 316 4 43 61 23 324 6 59 28 36 111 22 50 85 53 20 237 55 203 226 233 203 328 306 8 93 53 275
25 23 20 25 24 19 16 13 10 9 15 13 21 23 53 85 297 320 329 62 46 56 262 17 69 324 92 38 37 45 27 14 61 54 358 329 232 253 180 235 161 211 289 338 359 6 242
25 20 19 12 11 10 5 358 353 349 347 359 354 11 0 83 13 264 56 54 61 328 55 60 92 91 63 110 29 32 68 359 291 152 110 92 316 188 172 222 162 247 67 337 305 323 296
25 21 20 19 14 10 11 0 350 344 339 332 3 353 8 321 355 46 66 53 129 122 125 128 33 80 356 88 133 196 211 218 187 184 132 26 287 279 185 178 154 50 261 53 266 71 292
12 17 15 14 15 12 9 11 2 355 352 5 74 43 310 343 119 49 72 96 104 208 129 160 132 216 155 214 183 263 264 226 198 177 137 358 305 231 352 118 257 185 235 65 189 314 295
3 6 9 9 7 9 7 7 7 360 352 148 66 55 236 115 81 45 70 88 99 194 187 152 145 111 108 199 183 237 315 275 262 98 77 36 69 293 10 201 181 117 272 212 306 184 235
2 2 3 3 7 3 7 5 7 5 21 71 94 51 247 144 53 32 50 356 275 6 229 225 162 144 167 176 170 145 252 233 174 140 83 258 336 286 247 335 11 282 228 137 142 245 233
358 4 5 4 1 7 3 4 6 4 15 90 69 269 316 108 89 5 338 62 97 39 37 15 45 39 171 156 30 244 240 352 157 153 162 177 306 306 345 13 91 210 222 165 98 65 225
352 357 4 6 2 1 5 0 1 3 7 83 73 53 347 46 49 122 127 23 89 6 106 113 29 86 52 38 194 337 318 47 185 189 187 165 199 196 209 223 191 268 201 214 157 178 223
349 350 355 3 6 2 360 2 357 359 4 92 28 18 174 351 359 104 116 118 85 34 5 30 81 81 117 25 344 243 259 303 194 233 169 159 247 196 248 258 254 257 253 202 197 214 199
343 347 350 358 4 4 0 358 0 357 8 77 102 117 34 42 346 356 356 201 173 207 182 242 131 188 169 193 194 224 180 204 223 134 167 156 273 335 283 259 228 252 238 233 225 228 244
333 342 346 348 355 1 2 360 3 3 15 90 8 2 98 281 30 28 278 228 245 220 260 218 177 160 225 232 207 216 208 187 177 168 185 175 192 14 265 317 311 306 237 206 213 204 178
308 333 341 344 348 355 1 2 4 12 26 106 180 117 79 305 102 178 351 354 314 302 319 319 98 191 292 12 360 4 273 253 220 231 192 169 150 163 278 330 357 233 195 201 215 243 227
310 314 329 338 343 351 355 2 5 11 18 70 179 112 117 220 217 288 215 194 323 320 273 263 249 240 348 18 332 318 314 318 244 226 206 195 156 242 231 213 282 293 157 188 196 288 224
298 293 307 323 336 346 349 356 1 10 15 66 11 343 106 116 248 165 170 203 204 208 320 243 225 263 66 68 23 290 271 308 338 228 39 111 28 178 101 288 268 237 203 174 135 292 258
288 292 279 298 319 336 343 346 354 359 16 69 330 343 78 142 246 157 190 182 143 126 218 288 292 99 56 104 229 228 270 212 279 251 185 175 197 222 222 258 280 240 211 131 87 237 185
289 280 265 278 293 314 328 335 341 354 4 66 253 18 90 204 268 196 190 156 126 156 162 240 26 344 69 166 183 244 222 258 291 242 196 187 168 208 141 207 278 156 96 181 222 300 281
277 276 266 255 272 287 306 316 326 341 359 12 8 351 100 181 251 236 234 239 195 188 149 200 177 175 203 121 203 165 245 223 190 272 241 267 197 195 186 220 244 213 220 209 176 208 220